This is the latest recevied weather packets stored in our database for station/object KJ5SC. If no packets are shown the sender has not sent any weather packets the latest 10 day(s).
| Time | Temp. | Humidity | Pressure | Rain* | Wind** | Luminosity | Snow |
|---|---|---|---|---|---|---|---|
| 1787703588 | 33.89° C | 52% | 1016.4 hPa | 0 mm | - | 12 W/m² | - |
| 1787703288 | 33.89° C | 51% | 1016.4 hPa | 0 mm | - | 14 W/m² | - |
| 1787702984 | 33.89° C | 51% | 1016.4 hPa | 0 mm | - | 16 W/m² | - |
| 1787702680 | 34.44° C | 51% | 1016.5 hPa | 0 mm | - | 24 W/m² | - |
| 1787702379 | 34.44° C | 51% | 1016.5 hPa | 0 mm | - | 32 W/m² | - |
| 1787702079 | 34.44° C | 51% | 1016.8 hPa | 0 mm | - | 37 W/m² | - |
| 1787701776 | 34.44° C | 50% | 1016.8 hPa | 0 mm | - | 41 W/m² | - |
| 1787701477 | 34.44° C | 51% | 1016.8 hPa | 0 mm | - | 43 W/m² | - |
| 1787701171 | 34.44° C | 50% | 1016.8 hPa | 0 mm | - | 38 W/m² | - |
| 1787700868 | 34.44° C | 50% | 1016.8 hPa | 0 mm | - | 33 W/m² | - |
| 1787700563 | 34.44° C | 49% | 1016.8 hPa | 0 mm | - | 35 W/m² | - |
| 1787700259 | 34.44° C | 51% | 1016.8 hPa | 0 mm | - | 41 W/m² | - |
| 1787699955 | 34.44° C | 50% | 1016.5 hPa | 0 mm | - | 48 W/m² | - |
| 1787699650 | 34.44° C | 50% | 1016.5 hPa | 0 mm | - | 52 W/m² | - |
| 1787699346 | 35° C | 49% | 1016.5 hPa | 0 mm | - | 60 W/m² | - |
| 1787699041 | 35° C | 49% | 1016.5 hPa | 0 mm | - | 56 W/m² | - |
| 1787698737 | 35° C | 48% | 1016.5 hPa | 0 mm | - | 45 W/m² | - |
| 1787698433 | 35° C | 48% | 1016.5 hPa | 0 mm | - | 36 W/m² | - |
| 1787698128 | 35.56° C | 47% | 1016.5 hPa | 0 mm | - | 31 W/m² | - |
| 1787697823 | 35.56° C | 46% | 1016.5 hPa | 0 mm | - | 36 W/m² | - |
| 1787697518 | 36.11° C | 46% | 1016.7 hPa | 0 mm | - | 55 W/m² | - |
| 1787697214 | 36.11° C | 45% | 1016.5 hPa | 0 mm | - | 67 W/m² | - |
| 1787696910 | 36.67° C | 44% | 1016.6 hPa | 0 mm | - | 88 W/m² | - |
| 1787696605 | 36.67° C | 44% | 1016.9 hPa | 0 mm | - | 109 W/m² | - |
| 1787696301 | 36.67° C | 44% | 1016.9 hPa | 0 mm | - | 125 W/m² | - |
* Rain latest hour (hover to see other rain measurements)
** Current wind speed in m/s (hover to see current wind gust speed)